This is the latest recevied weather packets stored in our database for station/object EFTP. If no packets are shown the sender has not sent any weather packets the latest 10 day(s).
| Time | Temp. | Humidity | Pressure | Rain* | Wind** | Luminosity | Snow |
|---|---|---|---|---|---|---|---|
| 1777914434 | 9.44° C | 65% | 1000.3 hPa | - | - | - | - |
| 1777913234 | 10° C | 62% | 1000.2 hPa | - | - | - | - |
| 1777912034 | 9.44° C | 62% | 1000.1 hPa | - | - | - | - |
| 1777910834 | 10.56° C | 60% | 1000.1 hPa | - | - | - | - |
| 1777909634 | 10° C | 60% | 1000.2 hPa | - | - | - | - |
| 1777908434 | 10° C | 64% | 1000.4 hPa | - | - | - | - |
| 1777907234 | 9.44° C | 64% | 1000.4 hPa | - | - | - | - |
| 1777906034 | 10° C | 66% | 1000.5 hPa | - | - | - | - |
| 1777904834 | 10° C | 63% | 1000.6 hPa | - | - | - | - |
| 1777903634 | 10.56° C | 56% | 1000.7 hPa | - | - | - | - |
| 1777902434 | 10.56° C | 54% | 1000.7 hPa | - | - | - | - |
| 1777901234 | 11.11° C | 51% | 1000.8 hPa | - | - | - | - |
| 1777900033 | 11.67° C | 49% | 1001 hPa | - | - | - | - |
| 1777898833 | 10.56° C | 50% | 1001.2 hPa | - | - | - | - |
| 1777897633 | 10.56° C | 50% | 1001.4 hPa | - | - | - | - |
| 1777896434 | 9.44° C | 47% | 1001.6 hPa | - | - | - | - |
| 1777895234 | 9.44° C | 46% | 1001.7 hPa | - | - | - | - |
| 1777894033 | 8.89° C | 42% | 1001.9 hPa | - | - | - | - |
| 1777892833 | 8.33° C | 42% | 1002.1 hPa | - | - | - | - |
| 1777891633 | 8.33° C | 41% | 1002.3 hPa | - | - | - | - |
| 1777890433 | 8.33° C | 40% | 1002.7 hPa | - | - | - | - |
| 1777889233 | 7.78° C | 39% | 1003 hPa | - | - | - | - |
| 1777888032 | 7.78° C | 39% | 1003.4 hPa | - | - | - | - |
| 1777886833 | 8.33° C | 42% | 1003.7 hPa | - | - | - | - |
| 1777885633 | 7.22° C | 49% | 1003.8 hPa | - | - | - | - |
* Rain since midnight (hover to see other rain measurements)
** Current wind speed in m/s (hover to see current wind gust speed)